#timestamp,LO_Frequency,Hit,StdDev 
1582383615.8,286046999.4,N
1582383635.6,286046999.3,N
1582383655.4,286046998.7,N
1582383675.3,286046996.7,N
1582383695.1,286046999.3,N
1582383715.9,286046999.7,N
1582383735.7,286047001.0,N
1582383755.5,286046999.6,N
1582383775.4,286046998.2,N
1582383795.2,286046997.0,N
1582383815.0,286046999.5,N
1582383815.9,286046999.5,N
1582383835.8,286046999.6,N
1582383855.6,286046998.3,N
1582383875.5,286047001.2,N
1582383895.3,286046998.8,N
1582383915.1,286046998.8,N
1582383935.9,286047001.0,N
1582383955.7,286047001.7,N
1582383975.6,286047001.6,N
1582383995.4,286046999.7,N
1582384015.2,286047001.0,N
1582384035.1,286046998.4,N
1582384036.0,286046998.4,N
1582384055.8,286046998.8,N
1582384075.7,286046998.9,N
1582384095.5,286046998.9,N
1582384115.3,286046999.9,N
1582384135.2,286047000.2,N
1582384155.0,286046999.8,N
1582384155.9,286046999.8,N
1582384175.8,286046999.8,N
1582384195.6,286047004.2,Y
1582384215.4,286047005.8,P
1582384235.3,286047004.2,N
1582384255.1,286047004.0,N
1582384275.9,286047003.6,N
1582384295.7,286047001.7,N
1582384315.5,286047000.3,N
1582384335.4,286047002.7,N
1582384355.2,286047004.4,N
1582384375.0,286047003.8,N
1582384375.9,286047003.8,N
1582384395.8,286047002.3,N
1582384415.6,286047000.0,N
1582384435.5,286047003.6,N
1582384455.3,286047005.6,Y
1582384475.1,286047003.6,P
1582384495.9,286047003.2,P
1582384515.7,286047005.9,P
1582384535.6,286047004.0,Y
1582384555.4,286046999.5,P
1582384575.2,286046998.1,N
1582384595.1,286046998.7,N
1582384596.0,286046998.7,N
1582384615.8,286047000.7,N
1582384635.7,286047001.2,N
1582384655.5,286046998.3,N
1582384675.3,286046998.2,N
1582384695.2,286046996.5,N
1582384715.0,286046996.9,N
1582384715.9,286046996.9,N
1582384735.8,286046997.0,N
1582384755.6,286047000.9,N
1582384775.4,286047007.1,Y
1582384795.3,286047010.6,P
1582384815.1,286047010.0,N
1582384835.9,286047009.0,N
1582384855.7,286047006.0,N
1582384875.6,286047000.9,N
1582384895.4,286046999.4,N
1582384915.2,286046998.3,N
1582384935.1,286046998.9,N
1582384936.0,286046998.9,N
1582384955.8,286046997.1,N
1582384975.7,286046999.2,N
1582384995.5,286046998.0,N
1582385015.3,286046996.1,N
1582385035.2,286046996.0,N
1582385055.0,286046994.1,N
1582385055.9,286046994.1,N
1582385075.8,286046994.2,N
1582385095.6,286046994.2,N
1582385115.4,286046991.7,N
1582385135.3,286046992.5,N
1582385155.1,286046992.7,N
1582385175.8,286046994.8,N
1582385195.7,286046994.4,N
1582385215.5,286047000.8,N
1582385235.4,286047004.8,N
1582385255.2,286047003.6,N
1582385275.0,286047002.4,N
1582385275.9,286047002.4,N
1582385295.8,286047004.0,N
1582385315.6,286047000.0,N
1582385335.5,286046999.6,N
1582385355.3,286046997.5,N
1582385375.1,286046996.3,N
1582385395.9,286046991.9,N
1582385415.7,286046990.2,N
1582385435.5,286046990.9,N
1582385455.4,286046988.9,N
1582385475.2,286046991.2,N
1582385495.1,286046997.5,N
1582385496.0,286046997.5,N
1582385515.8,286046994.6,N
1582385535.6,286046993.1,N
1582385555.5,286046989.0,N
1582385575.3,286046989.6,N
1582385595.2,286046989.8,N
1582385615.9,286046987.1,N
1582385635.7,286046987.3,N
1582385655.6,286046989.2,N
1582385675.4,286046991.0,N
1582385695.3,286046990.3,N
1582385715.1,286046992.6,N
1582385716.0,286046992.6,N
1582385735.8,286046992.8,N
1582385755.7,286046992.6,N
1582385775.5,286046990.3,N
1582385795.4,286046993.2,N
1582385815.2,286046993.7,N
1582385835.0,286046992.1,N
1582385835.9,286046992.1,N
1582385855.8,286046992.7,N
1582385875.6,286046991.4,N
1582385895.4,286046991.5,Y
1582385915.3,286046999.0,P
1582385935.1,286046999.6,N
1582385955.9,286046996.5,N
1582385975.7,286046998.5,N
1582385995.5,286046999.2,N
1582386015.4,286046997.7,N
1582386035.2,286046996.2,N
1582386055.1,286046994.1,N
1582386056.0,286046994.1,N
1582386075.8,286046992.0,Y
1582386095.6,286046997.5,P
1582386115.5,286046995.0,P
1582386135.3,286046997.4,N
1582386155.1,286046998.5,N
1582386175.9,286047000.6,N
1582386195.7,286046999.2,N
1582386215.6,286046997.3,N
1582386235.4,286046997.1,N
1582386255.2,286046996.7,N
1582386275.1,286046997.2,N
1582386276.0,286046997.2,N
1582386295.8,286046999.2,N
1582386315.7,286046999.4,N
1582386335.5,286046998.9,N
1582386355.3,286046996.5,N
1582386375.2,286046995.0,Y
1582386395.0,286047001.2,P
1582386395.9,286047001.2,N
1582386415.8,286046996.8,N
1582386435.6,286046995.0,N
1582386455.4,286046997.9,N
1582386475.3,286046997.6,N
1582386495.1,286046995.5,N
1582386515.8,286046995.4,N
1582386535.7,286046997.2,N
1582386555.5,286046999.2,N
1582386575.4,286046996.9,N
1582386595.2,286046997.2,N
1582386615.0,286047001.5,N
1582386615.9,286047001.5,N
1582386635.8,286047005.9,N
1582386655.6,286047004.3,N
1582386675.5,286047000.5,N
1582386695.3,286046999.7,N
1582386715.1,286047001.2,N
1582386735.9,286047000.2,N
1582386755.7,286047001.3,N
1582386775.5,286047004.3,N
1582386795.4,286047002.5,N
1582386815.2,286047000.2,N
1582386835.1,286047001.0,N
1582386836.0,286047001.0,N
1582386855.8,286046998.6,N
1582386875.6,286046996.8,N
1582386895.5,286046994.9,N
1582386915.3,286046996.2,N
1582386935.1,286046994.3,N
1582386955.9,286046990.7,Y
1582386975.7,286046988.9,P
1582386995.6,286046993.5,N
1582387015.4,286046992.8,N
1582387035.2,286046990.9,N
1582387055.1,286046989.1,Y
1582387056.0,286046989.1,P
1582387075.8,286046995.7,N
1582387095.7,286046996.0,N
1582387115.5,286046994.2,N
1582387135.3,286046993.5,N
1582387155.2,286046993.6,N
1582387175.0,286046993.7,Y
1582387175.9,286046993.7,P
1582387195.8,286047002.0,P
